Location: Sungai Bunut
(2.6333°N, 113.7333°E)
Time: 07:28:09
(UTC+00:00)

Vanguard 3 - Pass Details

Date: 03 December 2023
Orbit: 508 x 3239 km, 33.3° (Epoch: 21 February)

Event Time Altitude Azimuth Distance (km) Brightness Sun altitude
Rises 10:40:46 0° 231° (SW) 7,143 13.7 -7.0°
Reaches altitude 10° 10:45:33 10° 229° (SW) 6,173 13.0 -8.1°
Maximum altitude 11:05:28 80° 144° (SE) 2,830 9.8 -12.7°
Enters shadow 11:17:02 18° 60° (ENE) 3,993 10.0 -15.4°
Drops below altitude 10° 11:19:02 10° 59° (ENE) 4,444 - -15.9°
Sets 11:21:52 0° 58° (ENE) 5,139 - -16.5°
